When you browse on this site, cookies collect data to enhance your experience and personalize the content and advertising you see.
Visit our Privacy Policy to learn more. By continuing to use the site, you agree to this use of cookies and data.

Hourly Weather Brisbane

Today, 9 July, Thursday

Time Temperature Precipitation Wind Pressure Humidity
00:00 +15°C° 0.5 mm 4 mps 768 mmHg 89%
01:00 +15°C° 0.5 mm 4 mps 768 mmHg 89%
02:00 +16°C° 0.3 mm 3 mps 768 mmHg 89%
03:00 +16°C° 0.3 mm 3 mps 767 mmHg 89%
04:00 +16°C° 0 mm 3 mps 767 mmHg 88%
05:00 +16°C° 0.4 mm 3 mps 768 mmHg 88%
06:00 +16°C° 0.4 mm 2 mps 768 mmHg 88%
07:00 +16°C° 0.4 mm 2 mps 769 mmHg 89%
08:00 +16°C° 0.4 mm 2 mps 769 mmHg 86%
09:00 +17°C° 0.4 mm 2 mps 769 mmHg 84%
10:00 +17°C° 0 mm 2 mps 769 mmHg 87%
11:00 +17°C° 0.4 mm 2 mps 769 mmHg 85%
12:00 +17°C° 0.4 mm 2 mps 769 mmHg 83%
13:00 +18°C° 0.4 mm 2 mps 768 mmHg 81%
14:00 +18°C° 0.4 mm 3 mps 768 mmHg 81%
15:00 +18°C° 0.4 mm 3 mps 768 mmHg 81%
16:00 +18°C° 0.4 mm 3 mps 767 mmHg 82%
17:00 +17°C° 0.3 mm 3 mps 768 mmHg 82%
18:00 +17°C° 0.3 mm 3 mps 768 mmHg 83%
19:00 +17°C° 0.3 mm 2 mps 768 mmHg 84%
20:00 +17°C° 0.1 mm 2 mps 768 mmHg 84%
21:00 +16°C° 0.1 mm 2 mps 768 mmHg 84%
22:00 +16°C° 0.1 mm 2 mps 769 mmHg 84%
23:00 +16°C° 0.2 mm 2 mps 768 mmHg 84%

Tomorrow, 10 July, Friday

Time Temperature Precipitation Wind Pressure Humidity
00:00 +16°C° 0.2 mm 2 mps 768 mmHg 85%
01:00 +15°C° 0.2 mm 2 mps 768 mmHg 86%
02:00 +15°C° 0.1 mm 2 mps 768 mmHg 86%
03:00 +15°C° 0.1 mm 2 mps 768 mmHg 86%
04:00 +15°C° 0.1 mm 2 mps 767 mmHg 86%
05:00 +15°C° 0.1 mm 2 mps 768 mmHg 86%
06:00 +15°C° 0.1 mm 2 mps 768 mmHg 86%
07:00 +15°C° 0.1 mm 2 mps 768 mmHg 86%
08:00 +16°C° 0 mm 2 mps 768 mmHg 80%
09:00 +18°C° 0 mm 2 mps 768 mmHg 74%
10:00 +19°C° 0 mm 2 mps 768 mmHg 68%
11:00 +20°C° 0 mm 2 mps 768 mmHg 63%
12:00 +21°C° 0 mm 3 mps 767 mmHg 59%
13:00 +22°C° 0 mm 3 mps 766 mmHg 54%
14:00 +21°C° 0 mm 3 mps 766 mmHg 56%
15:00 +21°C° 0 mm 3 mps 766 mmHg 59%
16:00 +20°C° 0 mm 2 mps 765 mmHg 61%
17:00 +19°C° 0 mm 2 mps 766 mmHg 65%
18:00 +18°C° 0 mm 2 mps 766 mmHg 69%
19:00 +18°C° 0 mm 1 mps 766 mmHg 74%
20:00 +16°C° 0 mm 1 mps 766 mmHg 75%
21:00 +16°C° 0 mm 1 mps 767 mmHg 77%
22:00 +15°C° 0 mm 1 mps 767 mmHg 78%
23:00 +15°C° 0 mm 1 mps 766 mmHg 80%

Day after tomorrow, 11 July, Saturday

Time Temperature Precipitation Wind Pressure Humidity
00:00 +15°C° 0 mm 1 mps 766 mmHg 81%
01:00 +14°C° 0 mm 1 mps 766 mmHg 82%
02:00 +14°C° 0 mm 1 mps 765 mmHg 83%
03:00 +14°C° 0 mm 1 mps 765 mmHg 84%
04:00 +14°C° 0 mm 1 mps 764 mmHg 85%
05:00 +13°C° 0 mm 1 mps 765 mmHg 85%
06:00 +13°C° 0 mm 1 mps 765 mmHg 86%
07:00 +13°C° 0 mm 1 mps 765 mmHg 86%
08:00 +15°C° 0 mm 1 mps 765 mmHg 78%
09:00 +19°C° 0 mm 1 mps 765 mmHg 69%
10:00 +21°C° 0 mm 1 mps 764 mmHg 61%
11:00 +22°C° 0 mm 1 mps 764 mmHg 56%
12:00 +23°C° 0 mm 1 mps 763 mmHg 52%
13:00 +24°C° 0 mm 1 mps 762 mmHg 48%
14:00 +24°C° 0 mm 1 mps 762 mmHg 51%
15:00 +23°C° 0 mm 1 mps 762 mmHg 54%
16:00 +23°C° 0 mm 2 mps 761 mmHg 57%
17:00 +20°C° 0 mm 2 mps 762 mmHg 64%
18:00 +19°C° 0 mm 2 mps 762 mmHg 71%
19:00 +17°C° 0 mm 2 mps 762 mmHg 79%
20:00 +17°C° 0 mm 2 mps 762 mmHg 81%
21:00 +16°C° 0 mm 1 mps 762 mmHg 84%
22:00 +16°C° 0 mm 1 mps 762 mmHg 86%
23:00 +16°C° 0 mm 1 mps 762 mmHg 88%

12 July, Sunday

Time Temperature Precipitation Wind Pressure Humidity
00:00 +15°C° 0 mm 1 mps 762 mmHg 89%
01:00 +15°C° 0 mm 1 mps 762 mmHg 90%
02:00 +15°C° 0 mm 1 mps 761 mmHg 90%
03:00 +15°C° 0 mm 1 mps 761 mmHg 90%
04:00 +15°C° 0 mm 1 mps 761 mmHg 91%
05:00 +15°C° 0 mm 1 mps 761 mmHg 90%
06:00 +15°C° 0 mm 1 mps 761 mmHg 89%
07:00 +15°C° 0 mm 1 mps 762 mmHg 88%
08:00 +18°C° 0 mm 1 mps 762 mmHg 80%
09:00 +20°C° 0 mm 1 mps 762 mmHg 73%
10:00 +22°C° 0 mm 1 mps 762 mmHg 65%
11:00 +23°C° 0 mm 1 mps 761 mmHg 60%
12:00 +24°C° 0 mm 1 mps 760 mmHg 54%
13:00 +25°C° 0 mm 1 mps 760 mmHg 48%
14:00 +24°C° 0 mm 1 mps 760 mmHg 53%
15:00 +24°C° 0 mm 1 mps 759 mmHg 57%
16:00 +23°C° 0 mm 1 mps 759 mmHg 62%
17:00 +22°C° 0.1 mm 1 mps 760 mmHg 67%
18:00 +21°C° 0.1 mm 1 mps 760 mmHg 72%
19:00 +18°C° 0.1 mm 0 mps 760 mmHg 77%
20:00 +19°C° 0.9 mm 1 mps 760 mmHg 80%
21:00 +18°C° 0.9 mm 3 mps 760 mmHg 82%
22:00 +17°C° 0.9 mm 4 mps 761 mmHg 84%
23:00 +17°C° 2 mm 3 mps 761 mmHg 86%

13 July, Monday

Time Temperature Precipitation Wind Pressure Humidity
00:00 +16°C° 2 mm 2 mps 761 mmHg 89%
01:00 +16°C° 2 mm 1 mps 760 mmHg 91%
02:00 +16°C° 1.1 mm 1 mps 760 mmHg 91%
03:00 +16°C° 1.1 mm 1 mps 760 mmHg 92%
04:00 +16°C° 1.1 mm 1 mps 760 mmHg 93%
05:00 +15°C° 0 mm 2 mps 761 mmHg 88%
06:00 +14°C° 0 mm 2 mps 761 mmHg 84%
07:00 +13°C° 0 mm 3 mps 762 mmHg 80%
08:00 +14°C° 0 mm 3 mps 762 mmHg 70%
09:00 +15°C° 0 mm 4 mps 762 mmHg 60%
10:00 +17°C° 0 mm 4 mps 762 mmHg 49%
11:00 +18°C° 0 mm 4 mps 762 mmHg 45%
12:00 +17°C° 0 mm 5 mps 761 mmHg 41%
13:00 +19°C° 0 mm 5 mps 760 mmHg 37%
14:00 +19°C° 0 mm 5 mps 760 mmHg 38%
15:00 +17°C° 0 mm 5 mps 760 mmHg 39%
16:00 +17°C° 0 mm 5 mps 760 mmHg 41%
17:00 +15°C° 0 mm 4 mps 761 mmHg 45%
18:00 +14°C° 0 mm 4 mps 761 mmHg 48%
19:00 +13°C° 0 mm 4 mps 762 mmHg 52%
20:00 +12°C° 0 mm 4 mps 762 mmHg 54%
21:00 +12°C° 0 mm 4 mps 762 mmHg 57%
22:00 +10°C° 0 mm 5 mps 762 mmHg 59%
23:00 +10°C° 0 mm 5 mps 762 mmHg 60%

14 July, Tuesday

Time Temperature Precipitation Wind Pressure Humidity
00:00 +10°C° 0 mm 5 mps 762 mmHg 61%
01:00 +10°C° 0 mm 5 mps 762 mmHg 61%
02:00 +9°C° 0 mm 5 mps 761 mmHg 63%
03:00 +9°C° 0 mm 5 mps 761 mmHg 65%
04:00 +9°C° 0 mm 5 mps 761 mmHg 67%
05:00 +9°C° 0 mm 6 mps 761 mmHg 68%
06:00 +9°C° 0 mm 6 mps 761 mmHg 69%
07:00 +9°C° 0 mm 6 mps 762 mmHg 70%
08:00 +10°C° 0 mm 6 mps 762 mmHg 66%
09:00 +11°C° 0 mm 7 mps 762 mmHg 62%
10:00 +14°C° 0 mm 7 mps 762 mmHg 58%
11:00 +15°C° 0 mm 7 mps 761 mmHg 55%
12:00 +16°C° 0 mm 7 mps 760 mmHg 53%
13:00 +17°C° 0 mm 7 mps 759 mmHg 51%
14:00 +17°C° 0 mm 7 mps 759 mmHg 51%
15:00 +17°C° 0 mm 7 mps 759 mmHg 51%
16:00 +17°C° 0 mm 7 mps 758 mmHg 51%
17:00 +16°C° 0 mm 6 mps 759 mmHg 54%
18:00 +14°C° 0 mm 6 mps 759 mmHg 58%
19:00 +13°C° 0 mm 6 mps 760 mmHg 61%
20:00 +13°C° 0 mm 6 mps 760 mmHg 63%
21:00 +13°C° 0 mm 5 mps 760 mmHg 64%
22:00 +12°C° 0 mm 5 mps 760 mmHg 66%
23:00 +12°C° 0 mm 5 mps 760 mmHg 66%
Show more